| time (UTC) | temp C | wind direction | speed KPH | gust KPH | rain 1hr cm | rain 24hr cm | rain mn cm | humidity % | barometer mb |
| 20260831013735 | 17 | 175 | 6.4 | 12.9 | 0.00 | 0.20 | 0.00 | 89 | 1008.9 |
| 20260831013703 | 17 | 176 | 6.4 | 14.5 | 0.00 | 0.20 | 0.00 | 88 | 1009.0 |
| 20260831013437 | 17 | 172 | 6.4 | 14.5 | 0.00 | 0.20 | 0.00 | 89 | 1009.1 |
| 20260831012230 | 17 | 192 | 6.4 | 12.9 | 0.00 | 0.20 | 0.00 | 88 | 1009.1 |
| 20260831011733 | 17 | 179 | 6.4 | 14.5 | 0.00 | 0.20 | 0.00 | 88 | 1009.1 |
| 20260831011234 | 17 | 185 | 6.4 | 14.5 | 0.00 | 0.20 | 0.00 | 88 | 1009.2 |
| 20260831010732 | 17 | 208 | 6.4 | 12.9 | 0.00 | 0.20 | 0.00 | 87 | 1009.3 |
| 20260831010232 | 17 | 191 | 6.4 | 12.9 | 0.00 | 0.20 | 0.00 | 87 | 1009.3 |
| 20260831005732 | 17 | 162 | 6.4 | 11.3 | 0.00 | 0.20 | 0.00 | 87 | 1009.3 |
| 20260831005232 | 17 | 202 | 6.4 | 11.3 | 0.00 | 0.20 | 0.00 | 87 | 1009.2 |
| 20260831004732 | 17 | 179 | 4.8 | 14.5 | 0.00 | 0.20 | 0.00 | 86 | 1009.4 |
| 20260831004234 | 17 | 186 | 4.8 | 14.5 | 0.00 | 0.20 | 0.00 | 86 | 1009.3 |
| 20260831003734 | 17 | 144 | 6.4 | 11.3 | 0.00 | 0.20 | 0.00 | 86 | 1009.3 |
| 20260831003232 | 17 | 197 | 6.4 | 14.5 | 0.00 | 0.20 | 0.00 | 86 | 1009.3 |
| 20260831002731 | 17 | 197 | 6.4 | 14.5 | 0.00 | 0.20 | 0.00 | 86 | 1009.4 |
| 20260831002719 | 18 | 230 | 6.4 | 12.9 | 0.00 | 0.20 | 0.00 | 86 | 1009.5 |
| 20260831001734 | 18 | 161 | 6.4 | 12.9 | 0.00 | 0.20 | 0.00 | 86 | 1009.5 |
| 20260831001233 | 18 | 233 | 6.4 | 12.9 | 0.00 | 0.20 | 0.00 | 86 | 1009.5 |
| 20260831000733 | 18 | 192 | 4.8 | 11.3 | 0.00 | 0.20 | 0.00 | 86 | 1009.7 |
| 20260831000229 | 18 | 156 | 4.8 | 12.9 | 0.00 | 0.20 | 0.00 | 86 | 1009.6 |
| 20260830235723 | 18 | 170 | 6.4 | 14.5 | 0.00 | 0.20 | 0.00 | 86 | 1009.6 |
| 20260830235217 | 18 | 197 | 6.4 | 14.5 | 0.00 | 0.20 | 0.00 | 85 | 1009.6 |
| 20260830234716 | 18 | 170 | 4.8 | 11.3 | 0.00 | 0.20 | 0.00 | 85 | 1009.8 |
| 20260830234213 | 18 | 198 | 3.2 | 11.3 | 0.00 | 0.20 | 0.00 | 85 | 1009.8 |
| 20260830233714 | 18 | 197 | 4.8 | 11.3 | 0.00 | 0.20 | 0.00 | 84 | 1009.8 |
| 20260830233215 | 18 | 185 | 4.8 | 11.3 | 0.00 | 0.20 | 0.00 | 84 | 1009.8 |
| 20260830232712 | 18 | 229 | 4.8 | 12.9 | 0.00 | 0.20 | 0.00 | 85 | 1009.8 |
| 20260830232215 | 18 | 196 | 6.4 | 16.1 | 0.00 | 0.20 | 0.00 | 85 | 1009.8 |
| 20260830232146 | 18 | 180 | 4.8 | 16.1 | 0.00 | 0.20 | 0.00 | 85 | 1009.8 |
| 20260830231214 | 18 | 195 | 6.4 | 16.1 | 0.00 | 0.20 | 0.00 | 86 | 1009.8 |
| 20260830230714 | 18 | 170 | 8.0 | 16.1 | 0.00 | 0.20 | 0.00 | 86 | 1009.9 |
| 20260830230651 | 18 | 166 | 6.4 | 14.5 | 0.00 | 0.20 | 0.00 | 87 | 1009.8 |
| 20260830225714 | 18 | 189 | 6.4 | 14.5 | 0.00 | 0.20 | 0.00 | 87 | 1009.8 |
| 20260830225212 | 18 | 170 | 4.8 | 14.5 | 0.00 | 0.20 | 0.00 | 88 | 1009.8 |
| 20260830224712 | 18 | 179 | 6.4 | 16.1 | 0.00 | 0.20 | 0.00 | 88 | 1009.8 |
| 20260830224659 | 18 | 199 | 6.4 | 16.1 | 0.00 | 0.20 | 0.00 | 88 | 1009.9 |
| 20260830223712 | 18 | 179 | 6.4 | 14.5 | 0.00 | 0.20 | 0.00 | 88 | 1009.8 |
| 20260830223211 | 18 | 190 | 6.4 | 14.5 | 0.00 | 0.20 | 0.00 | 88 | 1009.9 |
| 20260830222710 | 18 | 181 | 4.8 | 11.3 | 0.00 | 0.20 | 0.00 | 87 | 1009.9 |
| 20260830222206 | 18 | 175 | 1.6 | 9.7 | 0.00 | 0.20 | 0.00 | 87 | 1009.9 |
| 20260830221708 | 18 | 163 | 1.6 | 3.2 | 0.00 | 0.20 | 0.00 | 86 | 1009.9 |
| 20260830221206 | 18 | 163 | 1.6 | 6.4 | 0.00 | 0.20 | 0.00 | 86 | 1010.0 |
| 20260830221147 | 18 | 163 | 3.2 | 6.4 | 0.00 | 0.20 | 0.00 | 86 | 1010.0 |
| 20260830220643 | 18 | 137 | 3.2 | 6.4 | 0.00 | 0.20 | 0.00 | 85 | 1010.0 |
| 20260830215732 | 18 | 166 | 3.2 | 8.0 | 0.00 | 0.20 | 0.20 | 85 | 1010.0 |
| 20260830215709 | 18 | 163 | 3.2 | 8.0 | 0.00 | 0.20 | 0.20 | 85 | 1010.0 |
| 20260830215126 | 18 | 153 | 3.2 | 8.0 | 0.00 | 0.20 | 0.20 | 84 | 1010.1 |
| 20260830214204 | 18 | 162 | 3.2 | 8.0 | 0.00 | 0.20 | 0.20 | 84 | 1010.1 |
| 20260830213705 | 18 | 172 | 4.8 | 8.0 | 0.00 | 0.20 | 0.20 | 84 | 1010.2 |
| 20260830213204 | 18 | 177 | 4.8 | 8.0 | 0.00 | 0.20 | 0.20 | 84 | 1010.3 |
| 20260830212706 | 18 | 167 | 4.8 | 8.0 | 0.00 | 0.20 | 0.20 | 83 | 1010.3 |
| 20260830212202 | 19 | 204 | 4.8 | 11.3 | 0.00 | 0.20 | 0.20 | 83 | 1010.4 |
| 20260830211705 | 19 | 166 | 6.4 | 11.3 | 0.00 | 0.20 | 0.20 | 83 | 1010.3 |
| 20260830211203 | 19 | 188 | 6.4 | 12.9 | 0.00 | 0.20 | 0.20 | 82 | 1010.5 |
| 20260830211141 | 19 | 202 | 6.4 | 12.9 | 0.00 | 0.20 | 0.20 | 82 | 1010.5 |
| 20260830210648 | 19 | 182 | 4.8 | 9.7 | 0.00 | 0.20 | 0.20 | 82 | 1010.5 |
| 20260830205704 | 19 | 174 | 4.8 | 9.7 | 0.00 | 0.20 | 0.20 | 82 | 1010.4 |
| 20260830205203 | 19 | 162 | 6.4 | 11.3 | 0.00 | 0.20 | 0.20 | 82 | 1010.4 |
| 20260830204705 | 20 | 187 | 8.0 | 14.5 | 0.00 | 0.20 | 0.20 | 81 | 1010.4 |
| 20260830204645 | 20 | 206 | 9.7 | 20.9 | 0.00 | 0.20 | 0.20 | 81 | 1010.5 |
| 20260830203704 | 20 | 175 | 9.7 | 20.9 | 0.00 | 0.20 | 0.20 | 82 | 1010.5 |
| 20260830203205 | 19 | 146 | 8.0 | 17.7 | 0.00 | 0.20 | 0.20 | 82 | 1010.4 |
| 20260830202704 | 19 | 154 | 4.8 | 16.1 | 0.00 | 0.20 | 0.20 | 83 | 1010.4 |
| 20260830202659 | 19 | 178 | 3.2 | 8.0 | 0.00 | 0.20 | 0.20 | 83 | 1010.5 |
| 20260830202125 | 19 | 131 | 3.2 | 9.7 | 0.00 | 0.20 | 0.20 | 82 | 1010.5 |
| 20260830201907 | 19 | 166 | 3.2 | 9.7 | 0.00 | 0.20 | 0.20 | 82 | 1010.5 |
| 20260830200702 | 19 | 161 | 1.6 | 4.8 | 0.00 | 0.20 | 0.20 | 82 | 1010.5 |
| 20260830200204 | 19 | 193 | 1.6 | 6.4 | 0.00 | 0.33 | 0.20 | 82 | 1010.6 |
| 20260830195704 | 19 | 172 | 1.6 | 8.0 | 0.00 | 1.07 | 0.20 | 82 | 1010.6 |
| 20260830195204 | 19 | 166 | 1.6 | 8.0 | 0.00 | 1.37 | 0.20 | 82 | 1010.6 |
| 20260830195145 | 20 | 166 | 1.6 | 4.8 | 0.00 | 1.40 | 0.20 | 82 | 1010.6 |
| 20260830194641 | 20 | 166 | 1.6 | 4.8 | 0.00 | 1.45 | 0.20 | 81 | 1010.6 |
| 20260830193703 | 20 | 166 | 0.0 | 3.2 | 0.00 | 1.52 | 0.20 | 81 | 1010.6 |
| 20260830193637 | 20 | 166 | 1.6 | 6.4 | 0.00 | 1.55 | 0.20 | 81 | 1010.6 |
| 20260830192706 | 20 | 166 | 1.6 | 6.4 | 0.00 | 1.55 | 0.20 | 81 | 1010.6 |
| 20260830192205 | 20 | 148 | 1.6 | 4.8 | 0.00 | 1.63 | 0.20 | 81 | 1010.7 |
| 20260830191706 | 20 | 148 | 1.6 | 4.8 | 0.00 | 1.65 | 0.20 | 80 | 1010.6 |
| 20260830191202 | 20 | 147 | 1.6 | 4.8 | 0.00 | 1.65 | 0.20 | 80 | 1010.6 |
| 20260830190705 | 20 | 145 | 1.6 | 4.8 | 0.00 | 1.65 | 0.20 | 80 | 1010.6 |
| 20260830190202 | 20 | 150 | 1.6 | 4.8 | 0.00 | 1.65 | 0.20 | 80 | 1010.6 |
| 20260830185703 | 20 | 150 | 1.6 | 4.8 | 0.00 | 1.65 | 0.20 | 80 | 1010.6 |
| 20260830185204 | 20 | 160 | 3.2 | 8.0 | 0.00 | 1.65 | 0.20 | 79 | 1010.6 |
| 20260830184705 | 20 | 162 | 3.2 | 8.0 | 0.00 | 1.65 | 0.20 | 79 | 1010.8 |
| 20260830184203 | 20 | 187 | 1.6 | 8.0 | 0.00 | 1.65 | 0.20 | 78 | 1010.7 |
| 20260830183703 | 20 | 157 | 3.2 | 8.0 | 0.00 | 1.65 | 0.20 | 78 | 1010.8 |
| 20260830183642 | 20 | 170 | 4.8 | 8.0 | 0.00 | 1.65 | 0.20 | 78 | 1010.8 |
| 20260830183135 | 20 | 144 | 4.8 | 11.3 | 0.00 | 1.65 | 0.20 | 78 | 1010.8 |
| 20260830182206 | 20 | 183 | 4.8 | 11.3 | 0.00 | 1.65 | 0.20 | 79 | 1010.8 |
| 20260830182127 | 21 | 180 | 4.8 | 11.3 | 0.00 | 1.65 | 0.20 | 80 | 1010.9 |
| 20260830181909 | 20 | 202 | 4.8 | 11.3 | 0.00 | 1.65 | 0.20 | 79 | 1010.9 |
| 20260830180704 | 21 | 154 | 4.8 | 9.7 | 0.00 | 1.65 | 0.20 | 81 | 1011.0 |
| 20260830180204 | 21 | 152 | 1.6 | 8.0 | 0.00 | 1.65 | 0.20 | 81 | 1010.9 |
| 20260830175703 | 21 | 162 | 1.6 | 3.2 | 0.00 | 1.65 | 0.20 | 80 | 1010.9 |
| 20260830175642 | 21 | 163 | 3.2 | 8.0 | 0.00 | 1.65 | 0.20 | 80 | 1010.8 |
| 20260830174703 | 21 | 181 | 4.8 | 9.7 | 0.00 | 1.65 | 0.20 | 80 | 1010.9 |
| 20260830174206 | 21 | 168 | 4.8 | 9.7 | 0.00 | 1.65 | 0.20 | 80 | 1011.0 |
| 20260830173703 | 21 | 154 | 4.8 | 11.3 | 0.00 | 1.65 | 0.20 | 79 | 1011.1 |
| 20260830173202 | 21 | 176 | 4.8 | 11.3 | 0.00 | 1.65 | 0.20 | 79 | 1011.2 |
| 20260830172703 | 21 | 157 | 3.2 | 9.7 | 0.00 | 1.65 | 0.20 | 78 | 1011.1 |
| 20260830172203 | 21 | 168 | 4.8 | 11.3 | 0.00 | 1.65 | 0.20 | 79 | 1011.2 |
| 20260830171704 | 21 | 172 | 3.2 | 11.3 | 0.00 | 1.65 | 0.20 | 79 | 1011.2 |
| 20260830171202 | 21 | 186 | 3.2 | 6.4 | 0.00 | 1.65 | 0.20 | 79 | 1011.4 |
| 20260830170703 | 21 | 169 | 4.8 | 11.3 | 0.00 | 1.65 | 0.20 | 78 | 1011.3 |
| 20260830170202 | 21 | 188 | 4.8 | 11.3 | 0.00 | 1.65 | 0.20 | 78 | 1011.2 |
| 20260830170140 | 21 | 185 | 4.8 | 12.9 | 0.00 | 1.65 | 0.20 | 78 | 1011.4 |
| 20260830165205 | 21 | 212 | 4.8 | 12.9 | 0.00 | 1.65 | 0.20 | 78 | 1011.4 |
| 20260830164705 | 21 | 179 | 4.8 | 11.3 | 0.00 | 1.65 | 0.20 | 78 | 1011.4 |
| 20260830164659 | 21 | 249 | 4.8 | 9.7 | 0.00 | 1.65 | 0.20 | 78 | 1011.4 |
| 20260830163702 | 21 | 179 | 4.8 | 11.3 | 0.00 | 1.65 | 0.20 | 78 | 1011.5 |
| 20260830163204 | 21 | 199 | 6.4 | 12.9 | 0.00 | 1.65 | 0.20 | 77 | 1011.4 |
| 20260830162703 | 21 | 205 | 6.4 | 12.9 | 0.00 | 1.65 | 0.20 | 77 | 1011.5 |
| 20260830162205 | 21 | 252 | 6.4 | 16.1 | 0.00 | 1.65 | 0.20 | 76 | 1011.5 |
| 20260830161703 | 21 | 248 | 6.4 | 16.1 | 0.00 | 1.65 | 0.20 | 76 | 1011.5 |
| 20260830161203 | 21 | 239 | 4.8 | 12.9 | 0.00 | 1.65 | 0.20 | 76 | 1011.5 |
| 20260830160700 | 22 | 229 | 4.8 | 12.9 | 0.00 | 1.65 | 0.20 | 76 | 1011.5 |
| 20260830160202 | 22 | 236 | 6.4 | 14.5 | 0.00 | 1.65 | 0.20 | 76 | 1011.5 |
| 20260830155701 | 22 | 209 | 6.4 | 16.1 | 0.00 | 1.65 | 0.20 | 75 | 1011.6 |
| 20260830155157 | 22 | 217 | 8.0 | 19.3 | 0.00 | 1.65 | 0.20 | 75 | 1011.6 |
| 20260830154649 | 22 | 222 | 8.0 | 19.3 | 0.00 | 1.65 | 0.20 | 74 | 1011.6 |
| 20260830154150 | 22 | 217 | 8.0 | 19.3 | 0.00 | 1.65 | 0.20 | 74 | 1011.6 |
| 20260830153652 | 22 | 226 | 6.4 | 14.5 | 0.00 | 1.65 | 0.20 | 74 | 1011.6 |
| 20260830153346 | 22 | 229 | 6.4 | 16.1 | 0.00 | 1.65 | 0.20 | 74 | 1011.6 |
| 20260830152854 | 22 | 235 | 6.4 | 16.1 | 0.00 | 1.65 | 0.20 | 74 | 1011.7 |
| 20260830152132 | 22 | 189 | 9.7 | 19.3 | 0.00 | 1.65 | 0.20 | 74 | 1011.8 |
| 20260830151147 | 22 | 164 | 9.7 | 19.3 | 0.00 | 1.65 | 0.20 | 74 | 1011.9 |
| 20260830150649 | 22 | 195 | 9.7 | 22.5 | 0.00 | 1.65 | 0.20 | 74 | 1012.0 |
| 20260830150147 | 22 | 236 | 12.9 | 25.7 | 0.00 | 1.65 | 0.20 | 73 | 1012.0 |
| 20260830145649 | 22 | 201 | 12.9 | 25.7 | 0.00 | 1.65 | 0.20 | 74 | 1011.9 |
| 20260830145146 | 22 | 241 | 11.3 | 24.1 | 0.00 | 1.65 | 0.20 | 74 | 1012.0 |
| 20260830144649 | 22 | 229 | 11.3 | 24.1 | 0.00 | 1.65 | 0.20 | 74 | 1012.0 |
| 20260830144146 | 22 | 204 | 12.9 | 24.1 | 0.00 | 1.65 | 0.20 | 74 | 1012.0 |
| 20260830144133 | 22 | 204 | 11.3 | 22.5 | 0.00 | 1.65 | 0.20 | 73 | 1012.0 |
| 20260830143148 | 21 | 238 | 11.3 | 22.5 | 0.00 | 1.65 | 0.20 | 74 | 1012.1 |
| 20260830142648 | 21 | 214 | 11.3 | 22.5 | 0.00 | 1.65 | 0.20 | 73 | 1012.0 |
| 20260830142145 | 22 | 230 | 11.3 | 25.7 | 0.00 | 1.65 | 0.20 | 74 | 1012.1 |
| 20260830141645 | 21 | 268 | 14.5 | 30.6 | 0.00 | 1.65 | 0.20 | 72 | 1012.1 |
| 20260830141145 | 22 | 193 | 14.5 | 30.6 | 0.00 | 1.65 | 0.20 | 73 | 1012.1 |
| 20260830140645 | 22 | 272 | 12.9 | 25.7 | 0.00 | 1.65 | 0.20 | 73 | 1012.1 |
| 20260830140147 | 22 | 314 | 12.9 | 29.0 | 0.00 | 1.65 | 0.20 | 74 | 1012.1 |
| 20260830135644 | 22 | 259 | 14.5 | 29.0 | 0.00 | 1.65 | 0.20 | 74 | 1012.1 |
| 20260830135144 | 22 | 238 | 16.1 | 29.0 | 0.00 | 1.65 | 0.20 | 73 | 1012.0 |
| 20260830135123 | 22 | 195 | 17.7 | 29.0 | 0.00 | 1.68 | 0.20 | 72 | 1012.0 |
| 20260830134146 | 22 | 237 | 16.1 | 33.8 | 0.00 | 1.68 | 0.20 | 73 | 1011.9 |
| 20260830133646 | 22 | 221 | 16.1 | 33.8 | 0.00 | 1.68 | 0.20 | 74 | 1012.0 |
| 20260830133147 | 22 | 229 | 14.5 | 30.6 | 0.00 | 1.68 | 0.20 | 73 | 1012.1 |
| 20260830132648 | 22 | 233 | 14.5 | 30.6 | 0.00 | 1.68 | 0.20 | 74 | 1012.0 |
| 20260830132149 | 22 | 225 | 14.5 | 30.6 | 0.00 | 1.68 | 0.20 | 74 | 1012.0 |
| 20260830131644 | 22 | 248 | 14.5 | 35.4 | 0.00 | 1.68 | 0.20 | 73 | 1011.9 |
| 20260830131143 | 22 | 208 | 12.9 | 35.4 | 0.00 | 1.68 | 0.20 | 73 | 1011.9 |
| 20260830130645 | 22 | 211 | 14.5 | 32.2 | 0.00 | 1.68 | 0.20 | 75 | 1011.9 |
| 20260830130143 | 22 | 236 | 14.5 | 32.2 | 0.00 | 1.68 | 0.20 | 76 | 1012.0 |
| 20260830125643 | 22 | 221 | 14.5 | 32.2 | 0.00 | 1.70 | 0.20 | 77 | 1012.0 |
| 20260830125142 | 22 | 235 | 14.5 | 25.7 | 0.00 | 1.70 | 0.20 | 75 | 1011.9 |
| 20260830124641 | 22 | 243 | 12.9 | 20.9 | 0.00 | 1.70 | 0.20 | 76 | 1011.9 |
| 20260830124145 | 21 | 245 | 11.3 | 22.5 | 0.00 | 1.70 | 0.20 | 77 | 1012.0 |
| 20260830124127 | 22 | 216 | 11.3 | 27.4 | 0.00 | 1.70 | 0.20 | 77 | 1011.9 |
| 20260830123143 | 22 | 167 | 12.9 | 30.6 | 0.00 | 1.70 | 0.20 | 76 | 1011.9 |
| 20260830122641 | 22 | 231 | 12.9 | 30.6 | 0.00 | 1.70 | 0.20 | 77 | 1011.8 |
| 20260830122144 | 21 | 202 | 14.5 | 29.0 | 0.00 | 1.70 | 0.20 | 78 | 1011.9 |
| 20260830121643 | 21 | 212 | 16.1 | 30.6 | 0.00 | 1.70 | 0.20 | 77 | 1011.8 |
| 20260830121143 | 21 | 234 | 16.1 | 30.6 | 0.00 | 1.70 | 0.20 | 77 | 1011.8 |
| 20260830120641 | 22 | 237 | 16.1 | 32.2 | 0.00 | 1.70 | 0.20 | 77 | 1011.7 |
| 20260830120145 | 22 | 254 | 14.5 | 32.2 | 0.00 | 1.70 | 0.20 | 78 | 1011.6 |
| 20260830115645 | 22 | 233 | 12.9 | 30.6 | 0.00 | 1.70 | 0.20 | 77 | 1011.6 |
| 20260830115142 | 22 | 191 | 14.5 | 32.2 | 0.00 | 1.70 | 0.20 | 77 | 1011.6 |
| 20260830114639 | 21 | 199 | 14.5 | 32.2 | 0.00 | 1.73 | 0.20 | 78 | 1011.6 |
| 20260830114633 | 21 | 218 | 16.1 | 30.6 | 0.00 | 1.73 | 0.20 | 79 | 1011.5 |
| 20260830113636 | 21 | 204 | 17.7 | 29.0 | 0.00 | 1.73 | 0.20 | 78 | 1011.5 |
| 20260830113138 | 21 | 264 | 19.3 | 30.6 | 0.00 | 1.73 | 0.20 | 78 | 1011.4 |
| 20260830112639 | 21 | 196 | 19.3 | 30.6 | 0.00 | 1.73 | 0.20 | 78 | 1011.3 |
| 20260830112136 | 21 | 234 | 17.7 | 32.2 | 0.00 | 1.73 | 0.20 | 78 | 1011.3 |
| 20260830112116 | 21 | 208 | 16.1 | 35.4 | 0.00 | 1.73 | 0.20 | 77 | 1011.2 |
| 20260830111137 | 21 | 243 | 16.1 | 35.4 | 0.00 | 1.73 | 0.20 | 79 | 1011.2 |
| 20260830110635 | 21 | 162 | 17.7 | 33.8 | 0.00 | 1.73 | 0.20 | 80 | 1011.2 |
| 20260830110138 | 21 | 210 | 17.7 | 33.8 | 0.00 | 1.73 | 0.20 | 80 | 1011.2 |
| 20260830105639 | 21 | 206 | 16.1 | 33.8 | 0.00 | 1.73 | 0.20 | 81 | 1011.1 |
| 20260830105130 | 21 | 244 | 16.1 | 33.8 | 0.00 | 1.73 | 0.20 | 81 | 1011.1 |
| 20260830105109 | 21 | 206 | 16.1 | 32.2 | 0.00 | 1.73 | 0.20 | 82 | 1011.0 |
| 20260830104132 | 20 | 225 | 17.7 | 37.0 | 0.00 | 1.73 | 0.20 | 84 | 1011.0 |
| 20260830103632 | 20 | 264 | 19.3 | 37.0 | 0.00 | 1.73 | 0.20 | 83 | 1011.1 |
| 20260830103134 | 20 | 262 | 19.3 | 37.0 | 0.00 | 1.73 | 0.20 | 83 | 1011.1 |
| 20260830103113 | 20 | 225 | 17.7 | 37.0 | 0.00 | 1.73 | 0.20 | 83 | 1011.0 |
| 20260830102133 | 20 | 189 | 16.1 | 37.0 | 0.00 | 1.73 | 0.20 | 84 | 1011.0 |
| 20260830101634 | 20 | 204 | 16.1 | 37.0 | 0.00 | 1.73 | 0.20 | 84 | 1010.9 |
| 20260830101133 | 20 | 235 | 16.1 | 45.1 | 0.00 | 1.73 | 0.20 | 87 | 1010.8 |
| 20260830100631 | 20 | 175 | 19.3 | 45.1 | 0.00 | 1.73 | 0.20 | 87 | 1010.7 |
| 20260830100610 | 20 | 163 | 19.3 | 38.6 | 0.00 | 1.73 | 0.20 | 89 | 1010.7 |
| 20260830095633 | 20 | 239 | 14.5 | 37.0 | 0.00 | 1.73 | 0.20 | 90 | 1010.7 |
| 20260830095135 | 20 | 19 | 12.9 | 37.0 | 0.00 | 1.73 | 0.20 | 92 | 1010.6 |
| 20260830094632 | 19 | 230 | 16.1 | 41.8 | 0.00 | 1.73 | 0.20 | 94 | 1010.6 |
| 20260830094130 | 18 | 262 | 12.9 | 41.8 | 0.00 | 1.73 | 0.20 | 96 | 1010.7 |
| 20260830093625 | 18 | 284 | 11.3 | 27.4 | 0.00 | 1.73 | 0.20 | 97 | 1010.7 |
| 20260830093120 | 18 | 224 | 11.3 | 24.1 | 0.00 | 1.73 | 0.20 | 97 | 1010.7 |
| 20260830093102 | 18 | 215 | 12.9 | 24.1 | 0.00 | 1.73 | 0.20 | 97 | 1010.6 |
| 20260830092108 | 18 | 214 | 11.3 | 22.5 | 0.03 | 1.73 | 0.20 | 97 | 1010.6 |
| 20260830091604 | 18 | 210 | 11.3 | 24.1 | 0.03 | 1.73 | 0.20 | 97 | 1010.5 |
| 20260830091104 | 18 | 233 | 11.3 | 33.8 | 0.03 | 1.73 | 0.20 | 97 | 1010.5 |
| 20260830090607 | 18 | 228 | 11.3 | 33.8 | 0.05 | 1.73 | 0.20 | 98 | 1010.3 |
| 20260830090602 | 18 | 202 | 12.9 | 29.0 | 0.05 | 1.73 | 0.20 | 98 | 1010.3 |
| 20260830085607 | 18 | 185 | 12.9 | 29.0 | 0.05 | 1.73 | 0.20 | 98 | 1010.3 |
| 20260830085102 | 18 | 176 | 11.3 | 22.5 | 0.05 | 1.73 | 0.20 | 98 | 1010.3 |
| 20260830084605 | 18 | 227 | 11.3 | 22.5 | 0.08 | 1.73 | 0.20 | 98 | 1010.3 |
| 20260830084103 | 18 | 197 | 11.3 | 22.5 | 0.08 | 1.73 | 0.20 | 98 | 1010.2 |
| 20260830083603 | 18 | 191 | 11.3 | 27.4 | 0.10 | 1.73 | 0.20 | 98 | 1010.1 |
| 20260830083104 | 17 | 228 | 12.9 | 27.4 | 0.10 | 1.73 | 0.20 | 98 | 1010.2 |
| 20260830082604 | 17 | 208 | 12.9 | 24.1 | 0.10 | 1.73 | 0.18 | 98 | 1010.1 |
| 20260830082107 | 17 | 230 | 9.7 | 24.1 | 0.08 | 1.70 | 0.18 | 97 | 1010.0 |
| 20260830081607 | 17 | 176 | 8.0 | 19.3 | 0.08 | 1.70 | 0.18 | 98 | 1010.0 |
| 20260830081106 | 17 | 220 | 9.7 | 22.5 | 0.08 | 1.70 | 0.18 | 98 | 1009.9 |
| 20260830081043 | 17 | 204 | 9.7 | 22.5 | 0.05 | 1.68 | 0.15 | 98 | 1009.9 |
| 20260830080104 | 17 | 206 | 8.0 | 19.3 | 0.05 | 1.68 | 0.15 | 98 | 1009.9 |
| 20260830075600 | 17 | 215 | 6.4 | 16.1 | 0.05 | 1.68 | 0.15 | 97 | 1009.8 |
| 20260830075054 | 17 | 212 | 8.0 | 20.9 | 0.05 | 1.68 | 0.15 | 97 | 1009.7 |
| 20260830075026 | 17 | 181 | 11.3 | 24.1 | 0.03 | 1.65 | 0.13 | 98 | 1009.7 |
| 20260830074042 | 17 | 207 | 11.3 | 25.7 | 0.03 | 1.65 | 0.10 | 97 | 1009.7 |
| 20260830073538 | 17 | 194 | 12.9 | 29.0 | 0.00 | 1.63 | 0.10 | 97 | 1009.6 |
| 20260830073235 | 17 | 188 | 12.9 | 32.2 | 0.00 | 1.63 | 0.10 | 97 | 1009.5 |
| 20260830072737 | 17 | 229 | 12.9 | 32.2 | 0.00 | 1.63 | 0.10 | 98 | 1009.4 |
| 20260830071533 | 17 | 221 | 11.3 | 30.6 | 0.00 | 1.63 | 0.10 | 98 | 1009.3 |
| 20260830071033 | 17 | 266 | 12.9 | 29.0 | 0.00 | 1.63 | 0.10 | 98 | 1009.3 |
| 20260830070535 | 17 | 207 | 14.5 | 29.0 | 0.00 | 1.63 | 0.10 | 98 | 1009.2 |
| 20260830070525 | 17 | 231 | 12.9 | 25.7 | 0.00 | 1.63 | 0.10 | 98 | 1009.1 |
| 20260830065533 | 17 | 202 | 12.9 | 24.1 | 0.00 | 1.63 | 0.10 | 97 | 1009.0 |
| 20260830065031 | 17 | 171 | 11.3 | 25.7 | 0.00 | 1.63 | 0.10 | 97 | 1009.0 |
| 20260830064532 | 17 | 196 | 12.9 | 29.0 | 0.00 | 1.63 | 0.10 | 97 | 1009.0 |
| 20260830064035 | 17 | 183 | 12.9 | 29.0 | 0.00 | 1.63 | 0.10 | 97 | 1008.9 |
| 20260830063533 | 17 | 195 | 11.3 | 29.0 | 0.00 | 1.63 | 0.10 | 97 | 1008.9 |
| 20260830063034 | 17 | 160 | 12.9 | 32.2 | 0.00 | 1.63 | 0.10 | 97 | 1008.9 |
| 20260830062530 | 17 | 201 | 12.9 | 32.2 | 0.03 | 1.63 | 0.10 | 97 | 1008.8 |
| 20260830062032 | 17 | 214 | 11.3 | 25.7 | 0.03 | 1.63 | 0.10 | 97 | 1008.8 |
| 20260830061532 | 17 | 223 | 11.3 | 25.7 | 0.03 | 1.63 | 0.10 | 97 | 1008.6 |
| 20260830061030 | 17 | 207 | 11.3 | 25.7 | 0.03 | 1.63 | 0.10 | 97 | 1008.7 |
| 20260830060530 | 17 | 191 | 11.3 | 25.7 | 0.03 | 1.63 | 0.10 | 97 | 1008.7 |
| 20260830060031 | 17 | 210 | 11.3 | 24.1 | 0.05 | 1.63 | 0.10 | 97 | 1008.6 |
| 20260830060011 | 17 | 209 | 11.3 | 22.5 | 0.05 | 1.63 | 0.10 | 97 | 1008.5 |
| 20260830055032 | 17 | 173 | 11.3 | 20.9 | 0.05 | 1.63 | 0.10 | 97 | 1008.5 |
| 20260830054533 | 17 | 208 | 11.3 | 22.5 | 0.05 | 1.63 | 0.10 | 97 | 1008.4 |
| 20260830054523 | 17 | 255 | 12.9 | 27.4 | 0.05 | 1.63 | 0.10 | 97 | 1008.3 |
| 20260830053533 | 17 | 194 | 11.3 | 27.4 | 0.05 | 1.63 | 0.10 | 97 | 1008.3 |
| 20260830053527 | 17 | 174 | 9.7 | 19.3 | 0.05 | 1.63 | 0.10 | 97 | 1008.3 |
| 20260830053012 | 17 | 229 | 9.7 | 24.1 | 0.03 | 1.60 | 0.08 | 97 | 1008.2 |
| 20260830052029 | 17 | 156 | 9.7 | 24.1 | 0.03 | 1.60 | 0.08 | 97 | 1008.2 |
| 20260830051533 | 17 | 258 | 9.7 | 24.1 | 0.03 | 1.60 | 0.08 | 97 | 1008.1 |
| 20260830051522 | 17 | 242 | 9.7 | 24.1 | 0.03 | 1.60 | 0.08 | 97 | 1008.0 |
| 20260830050531 | 17 | 273 | 11.3 | 22.5 | 0.03 | 1.60 | 0.08 | 97 | 1007.9 |
| 20260830050031 | 17 | 218 | 11.3 | 25.7 | 0.00 | 1.57 | 0.05 | 97 | 1007.9 |
| 20260830045531 | 17 | 207 | 12.9 | 27.4 | 0.00 | 1.57 | 0.05 | 97 | 1007.8 |
| 20260830045507 | 17 | 195 | 11.3 | 25.7 | 0.00 | 1.57 | 0.05 | 97 | 1007.7 |
| 20260830045235 | 17 | 217 | 12.9 | 27.4 | 0.00 | 1.57 | 0.05 | 97 | 1007.8 |
| 20260830044025 | 17 | 215 | 11.3 | 25.7 | 0.00 | 1.57 | 0.05 | 97 | 1007.7 |
| 20260830044002 | 17 | 205 | 12.9 | 32.2 | 0.03 | 1.57 | 0.05 | 97 | 1007.5 |
| 20260830043954 | 17 | 206 | 12.9 | 24.1 | 0.00 | 1.57 | 0.05 | 97 | 1007.5 |
| 20260830043728 | 17 | 192 | 12.9 | 24.1 | 0.00 | 1.57 | 0.05 | 97 | 1007.6 |
| 20260830042508 | 17 | 160 | 12.9 | 32.2 | 0.03 | 1.57 | 0.05 | 97 | 1007.5 |
| 20260830041526 | 17 | 202 | 11.3 | 24.1 | 0.03 | 1.57 | 0.05 | 97 | 1007.5 |
| 20260830041024 | 17 | 177 | 11.3 | 24.1 | 0.03 | 1.57 | 0.05 | 97 | 1007.5 |
| 20260830041011 | 17 | 175 | 9.7 | 29.0 | 0.03 | 1.57 | 0.05 | 96 | 1007.5 |
| 20260830040027 | 17 | 279 | 11.3 | 29.0 | 0.03 | 1.57 | 0.05 | 96 | 1007.5 |
| 20260830035526 | 17 | 216 | 14.5 | 32.2 | 0.03 | 1.57 | 0.05 | 96 | 1007.5 |
| 20260830035023 | 17 | 204 | 12.9 | 32.2 | 0.03 | 1.57 | 0.05 | 96 | 1007.4 |
| 20260830034523 | 17 | 193 | 12.9 | 27.4 | 0.05 | 1.57 | 0.05 | 96 | 1007.4 |
| 20260830034024 | 17 | 185 | 11.3 | 32.2 | 0.05 | 1.57 | 0.05 | 96 | 1007.4 |
| 20260830033523 | 17 | 188 | 11.3 | 32.2 | 0.05 | 1.57 | 0.05 | 96 | 1007.4 |
| 20260830033025 | 17 | 191 | 11.3 | 29.0 | 0.05 | 1.57 | 0.05 | 96 | 1007.4 |
| 20260830032518 | 17 | 204 | 11.3 | 29.0 | 0.03 | 1.55 | 0.05 | 96 | 1007.3 |
| 20260830032015 | 17 | 210 | 11.3 | 25.7 | 0.03 | 1.55 | 0.05 | 96 | 1007.4 |
| 20260830031515 | 17 | 192 | 9.7 | 22.5 | 0.05 | 1.55 | 0.05 | 95 | 1007.3 |
| 20260830031017 | 17 | 183 | 11.3 | 24.1 | 0.05 | 1.55 | 0.05 | 95 | 1007.4 |
| 20260830031012 | 17 | 224 | 11.3 | 22.5 | 0.05 | 1.55 | 0.05 | 95 | 1007.3 |
| 20260830030729 | 17 | 174 | 11.3 | 24.1 | 0.05 | 1.55 | 0.05 | 95 | 1007.3 |
| 20260830025517 | 17 | 206 | 11.3 | 27.4 | 0.05 | 1.55 | 0.05 | 94 | 1007.3 |
| 20260830025016 | 17 | 197 | 14.5 | 32.2 | 0.05 | 1.55 | 0.05 | 94 | 1007.2 |
| 20260830024515 | 17 | 167 | 16.1 | 33.8 | 0.03 | 1.55 | 0.03 | 94 | 1007.3 |
| 20260830024018 | 17 | 150 | 14.5 | 33.8 | 0.03 | 1.55 | 0.03 | 94 | 1007.2 |
| 20260830023519 | 17 | 189 | 11.3 | 25.7 | 0.03 | 1.55 | 0.03 | 94 | 1007.1 |
| 20260830023016 | 17 | 163 | 11.3 | 22.5 | 0.03 | 1.55 | 0.03 | 93 | 1007.1 |
| 20260830023003 | 17 | 160 | 11.3 | 22.5 | 0.03 | 1.55 | 0.03 | 93 | 1007.1 |
| 20260830022015 | 18 | 223 | 11.3 | 27.4 | 0.03 | 1.55 | 0.03 | 92 | 1007.2 |
| 20260830021514 | 18 | 172 | 12.9 | 27.4 | 0.00 | 1.52 | 0.00 | 92 | 1007.2 |
| 20260830021015 | 18 | 202 | 16.1 | 33.8 | 0.00 | 1.52 | 0.00 | 91 | 1007.2 |
| 20260830020514 | 18 | 239 | 17.7 | 33.8 | 0.00 | 1.52 | 0.00 | 90 | 1007.0 |
| 20260830020014 | 18 | 215 | 17.7 | 37.0 | 0.00 | 1.52 | 0.00 | 90 | 1006.9 |
| 20260830015517 | 18 | 209 | 17.7 | 37.0 | 0.00 | 1.52 | 0.00 | 90 | 1006.8 |
| 20260830015015 | 18 | 221 | 14.5 | 33.8 | 0.00 | 1.52 | 0.00 | 89 | 1007.0 |